Year,Month,Day,Hour,Minute,Value (Times are PST for windspeed in km/hr)
2017,05,12,00,00,0.00
2017,05,12,00,01,0.40
2017,05,12,00,02,0.00
2017,05,12,00,03,0.60
2017,05,12,00,04,0.60
2017,05,12,00,05,0.00
2017,05,12,00,06,0.00
2017,05,12,00,07,0.00
2017,05,12,00,08,0.00
2017,05,12,00,09,0.60
2017,05,12,00,10,0.00
2017,05,12,00,11,0.00
2017,05,12,00,12,0.00
2017,05,12,00,13,0.00
2017,05,12,00,14,0.00
2017,05,12,00,15,0.00
2017,05,12,00,16,1.40
2017,05,12,00,17,0.40
2017,05,12,00,18,0.20
2017,05,12,00,19,0.00
2017,05,12,00,20,0.00
2017,05,12,00,21,0.00
2017,05,12,00,22,0.00
2017,05,12,00,23,0.00
2017,05,12,00,24,0.00
2017,05,12,00,25,0.00
2017,05,12,00,26,0.00
2017,05,12,00,27,0.00
2017,05,12,00,28,0.00
2017,05,12,00,29,0.00
2017,05,12,00,30,0.00
2017,05,12,00,31,0.00
2017,05,12,00,32,0.00
2017,05,12,00,33,0.00
2017,05,12,00,34,2.40
2017,05,12,00,35,2.90
2017,05,12,00,36,1.20
2017,05,12,00,37,0.10
2017,05,12,00,38,0.00
2017,05,12,00,39,1.30
2017,05,12,00,40,2.10
2017,05,12,00,41,3.00
2017,05,12,00,42,2.30
2017,05,12,00,43,3.20
2017,05,12,00,44,3.40
2017,05,12,00,45,2.00
2017,05,12,00,46,0.10
2017,05,12,00,47,0.60
2017,05,12,00,48,0.00
2017,05,12,00,49,0.00
2017,05,12,00,50,0.00
2017,05,12,00,51,0.00
2017,05,12,00,52,0.00
2017,05,12,00,53,0.00
2017,05,12,00,54,0.00
2017,05,12,00,55,0.00
2017,05,12,00,56,0.00
2017,05,12,00,57,0.00
2017,05,12,00,58,0.00
2017,05,12,00,59,0.00
2017,05,12,01,00,0.10
2017,05,12,01,01,0.50
2017,05,12,01,02,1.30
2017,05,12,01,03,0.10
2017,05,12,01,04,0.00
2017,05,12,01,05,0.00
2017,05,12,01,06,0.00
2017,05,12,01,07,0.00
2017,05,12,01,08,1.40
2017,05,12,01,09,2.20
2017,05,12,01,10,0.10
2017,05,12,01,11,0.50
2017,05,12,01,12,0.50
2017,05,12,01,13,0.50
2017,05,12,01,14,1.30
2017,05,12,01,15,0.00
2017,05,12,01,16,3.00
2017,05,12,01,17,5.10
2017,05,12,01,18,4.60
2017,05,12,01,19,3.30
2017,05,12,01,20,1.10
2017,05,12,01,21,2.70
2017,05,12,01,22,1.50
2017,05,12,01,23,2.10
2017,05,12,01,24,0.70
2017,05,12,01,25,0.00
2017,05,12,01,26,0.00
2017,05,12,01,27,0.00
2017,05,12,01,28,0.00
2017,05,12,01,29,0.00
2017,05,12,01,30,0.00
2017,05,12,01,31,0.00
2017,05,12,01,32,0.00
2017,05,12,01,33,0.00
2017,05,12,01,34,0.00
2017,05,12,01,35,0.00
2017,05,12,01,36,0.00
2017,05,12,01,37,0.00
2017,05,12,01,38,0.00
2017,05,12,01,39,0.00
2017,05,12,01,40,0.00
2017,05,12,01,41,0.00
2017,05,12,01,42,0.00
2017,05,12,01,43,0.00
2017,05,12,01,44,0.00
2017,05,12,01,45,0.00
2017,05,12,01,46,0.00
2017,05,12,01,47,0.00
2017,05,12,01,48,0.00
2017,05,12,01,49,0.00
2017,05,12,01,50,0.00
2017,05,12,01,51,0.00
2017,05,12,01,52,0.00
2017,05,12,01,53,0.00
2017,05,12,01,54,0.00
2017,05,12,01,55,0.00
2017,05,12,01,56,0.00
2017,05,12,01,57,0.00
2017,05,12,01,58,0.00
2017,05,12,01,59,0.00
2017,05,12,02,00,0.00
2017,05,12,02,01,0.00
2017,05,12,02,02,0.00
2017,05,12,02,03,2.00
2017,05,12,02,04,0.20
2017,05,12,02,05,0.00
2017,05,12,02,06,1.10
2017,05,12,02,07,1.10
2017,05,12,02,08,0.20
2017,05,12,02,09,2.30
2017,05,12,02,10,1.30
2017,05,12,02,11,0.00
2017,05,12,02,12,0.00
2017,05,12,02,13,0.10
2017,05,12,02,14,1.40
2017,05,12,02,15,1.00
2017,05,12,02,16,0.50
2017,05,12,02,17,1.50
2017,05,12,02,18,2.20
2017,05,12,02,19,0.50
2017,05,12,02,20,0.70
2017,05,12,02,21,0.00
2017,05,12,02,22,0.00
2017,05,12,02,23,1.30
2017,05,12,02,24,0.40
2017,05,12,02,25,1.00
2017,05,12,02,26,0.60
2017,05,12,02,27,2.20
2017,05,12,02,28,0.10
2017,05,12,02,29,0.10
2017,05,12,02,30,0.60
2017,05,12,02,31,2.40
2017,05,12,02,32,1.70
2017,05,12,02,33,0.20
2017,05,12,02,34,0.50
2017,05,12,02,35,0.20
2017,05,12,02,36,2.80
2017,05,12,02,37,0.30
2017,05,12,02,38,0.60
2017,05,12,02,39,0.00
2017,05,12,02,40,2.20
2017,05,12,02,41,3.90
2017,05,12,02,42,3.00
2017,05,12,02,43,2.50
2017,05,12,02,44,1.70
2017,05,12,02,45,3.60
2017,05,12,02,46,2.10
2017,05,12,02,47,2.70
2017,05,12,02,48,2.10
2017,05,12,02,49,3.80
2017,05,12,02,50,4.00
2017,05,12,02,51,3.50
2017,05,12,02,52,2.70
2017,05,12,02,53,2.00
2017,05,12,02,54,0.70
2017,05,12,02,55,0.60
2017,05,12,02,56,0.90
2017,05,12,02,57,0.20
2017,05,12,02,58,2.00
2017,05,12,02,59,3.60
2017,05,12,03,00,2.60
2017,05,12,03,01,0.40
2017,05,12,03,02,1.00
2017,05,12,03,03,2.80
2017,05,12,03,04,3.40
2017,05,12,03,05,3.50
2017,05,12,03,06,2.60
2017,05,12,03,07,0.70
2017,05,12,03,08,3.20
2017,05,12,03,09,1.90
2017,05,12,03,10,0.80
2017,05,12,03,11,1.30
2017,05,12,03,12,2.00
2017,05,12,03,13,4.10
2017,05,12,03,14,2.80
2017,05,12,03,15,2.40
2017,05,12,03,16,0.70
2017,05,12,03,17,0.00
2017,05,12,03,18,2.20
2017,05,12,03,19,3.40
2017,05,12,03,20,3.40
2017,05,12,03,21,1.50
2017,05,12,03,22,0.00
2017,05,12,03,23,3.30
2017,05,12,03,24,2.00
2017,05,12,03,25,2.70
2017,05,12,03,26,0.30
2017,05,12,03,27,0.00
2017,05,12,03,28,0.00
2017,05,12,03,29,2.30
2017,05,12,03,30,2.40
2017,05,12,03,31,0.90
2017,05,12,03,32,2.30
2017,05,12,03,33,0.10
2017,05,12,03,34,2.10
2017,05,12,03,35,0.20
2017,05,12,03,36,0.70
2017,05,12,03,37,1.30
2017,05,12,03,38,1.00
2017,05,12,03,39,2.90
2017,05,12,03,40,3.60
2017,05,12,03,41,3.50
2017,05,12,03,42,4.20
2017,05,12,03,43,3.70
2017,05,12,03,44,4.60
2017,05,12,03,45,2.40
2017,05,12,03,46,2.40
2017,05,12,03,47,2.20
2017,05,12,03,48,8.00
2017,05,12,03,49,4.30
2017,05,12,03,50,6.10
2017,05,12,03,51,3.10
2017,05,12,03,52,2.10
2017,05,12,03,53,2.50
2017,05,12,03,54,4.60
2017,05,12,03,55,3.50
2017,05,12,03,56,3.00
2017,05,12,03,57,2.20
2017,05,12,03,58,0.70
2017,05,12,03,59,3.20
2017,05,12,04,00,3.60
2017,05,12,04,01,3.90
2017,05,12,04,02,3.20
2017,05,12,04,03,6.00
2017,05,12,04,04,5.50
2017,05,12,04,05,2.60
2017,05,12,04,06,2.80
2017,05,12,04,07,6.60
2017,05,12,04,08,7.00
2017,05,12,04,09,8.00
2017,05,12,04,10,7.50
2017,05,12,04,11,4.80
2017,05,12,04,12,2.50
2017,05,12,04,13,2.10
2017,05,12,04,14,5.40
2017,05,12,04,15,4.50
2017,05,12,04,16,3.50
2017,05,12,04,17,3.40
2017,05,12,04,18,2.20
2017,05,12,04,19,3.50
2017,05,12,04,20,2.60
2017,05,12,04,21,3.30
2017,05,12,04,22,4.20
2017,05,12,04,23,4.60
2017,05,12,04,24,4.20
2017,05,12,04,25,5.00
2017,05,12,04,26,5.50
2017,05,12,04,27,10.30
2017,05,12,04,28,8.30
2017,05,12,04,29,7.10
2017,05,12,04,30,3.60
2017,05,12,04,31,5.40
2017,05,12,04,32,6.00
2017,05,12,04,33,6.10
2017,05,12,04,34,5.20
2017,05,12,04,35,3.20
2017,05,12,04,36,2.80
2017,05,12,04,37,7.00
2017,05,12,04,38,5.70
2017,05,12,04,39,6.30
2017,05,12,04,40,5.20
2017,05,12,04,41,3.90
2017,05,12,04,42,8.10
2017,05,12,04,43,2.90
2017,05,12,04,44,5.80
2017,05,12,04,45,5.70
2017,05,12,04,46,4.60
2017,05,12,04,47,3.40
2017,05,12,04,48,5.60
2017,05,12,04,49,4.10
2017,05,12,04,50,2.80
2017,05,12,04,51,5.30
2017,05,12,04,52,4.30
2017,05,12,04,53,7.60
2017,05,12,04,54,7.20
2017,05,12,04,55,3.90
2017,05,12,04,56,3.60
2017,05,12,04,57,4.90
2017,05,12,04,58,4.20
2017,05,12,04,59,3.50
2017,05,12,05,00,2.60
2017,05,12,05,01,2.70
2017,05,12,05,02,4.00
2017,05,12,05,03,1.50
2017,05,12,05,04,2.00
2017,05,12,05,05,4.00
2017,05,12,05,06,1.20
2017,05,12,05,07,4.90
2017,05,12,05,08,4.20
2017,05,12,05,09,3.30
2017,05,12,05,10,2.40
2017,05,12,05,11,1.50
2017,05,12,05,12,3.60
2017,05,12,05,13,4.80
2017,05,12,05,14,3.20
2017,05,12,05,15,5.80
2017,05,12,05,16,7.50
2017,05,12,05,17,4.40
2017,05,12,05,18,4.70
2017,05,12,05,19,5.10
2017,05,12,05,20,4.60
2017,05,12,05,21,1.10
2017,05,12,05,22,0.70
2017,05,12,05,23,1.80
2017,05,12,05,24,0.20
2017,05,12,05,25,2.10
2017,05,12,05,26,0.40
2017,05,12,05,27,2.10
2017,05,12,05,28,5.30
2017,05,12,05,29,2.90
2017,05,12,05,30,3.80
2017,05,12,05,31,4.20
2017,05,12,05,32,4.10
2017,05,12,05,33,1.40
2017,05,12,05,34,1.40
2017,05,12,05,35,0.40
2017,05,12,05,36,1.60
2017,05,12,05,37,0.80
2017,05,12,05,38,1.50
2017,05,12,05,39,0.40
2017,05,12,05,40,1.30
2017,05,12,05,41,4.60
2017,05,12,05,42,2.20
2017,05,12,05,43,3.70
2017,05,12,05,44,3.20
2017,05,12,05,45,4.60
2017,05,12,05,46,2.40
2017,05,12,05,47,1.90
2017,05,12,05,48,0.10
2017,05,12,05,49,1.00
2017,05,12,05,50,0.70
2017,05,12,05,51,0.00
2017,05,12,05,52,0.00
2017,05,12,05,53,0.00
2017,05,12,05,54,0.00
2017,05,12,05,55,0.00
2017,05,12,05,56,0.00
2017,05,12,05,57,0.00
2017,05,12,05,58,0.00
2017,05,12,05,59,0.00
2017,05,12,06,00,0.00
2017,05,12,06,01,0.00
2017,05,12,06,02,0.00
2017,05,12,06,03,0.00
2017,05,12,06,04,0.00
2017,05,12,06,05,0.00
2017,05,12,06,06,0.00
2017,05,12,06,07,0.00
2017,05,12,06,08,0.00
2017,05,12,06,09,0.00
2017,05,12,06,10,0.00
2017,05,12,06,11,0.00
2017,05,12,06,12,0.00
2017,05,12,06,13,0.00
2017,05,12,06,14,0.00
2017,05,12,06,15,0.00
2017,05,12,06,16,0.00
2017,05,12,06,17,0.00
2017,05,12,06,18,0.00
2017,05,12,06,19,0.00
2017,05,12,06,20,0.00
2017,05,12,06,21,0.00
2017,05,12,06,22,0.00
2017,05,12,06,23,0.00
2017,05,12,06,24,0.00
2017,05,12,06,25,2.30
2017,05,12,06,26,0.10
2017,05,12,06,27,0.00
2017,05,12,06,28,0.00
2017,05,12,06,29,0.00
2017,05,12,06,30,0.00
2017,05,12,06,31,0.00
2017,05,12,06,32,0.00
2017,05,12,06,33,0.00
2017,05,12,06,34,1.70
2017,05,12,06,35,2.00
2017,05,12,06,36,1.90
2017,05,12,06,37,4.10
2017,05,12,06,38,3.00
2017,05,12,06,39,1.90
2017,05,12,06,40,0.40
2017,05,12,06,41,2.10
2017,05,12,06,42,3.40
2017,05,12,06,43,0.80
2017,05,12,06,44,0.00
2017,05,12,06,45,0.00
2017,05,12,06,46,0.00
2017,05,12,06,47,0.00
2017,05,12,06,48,0.00
2017,05,12,06,49,0.00
2017,05,12,06,50,0.00
2017,05,12,06,51,0.40
2017,05,12,06,52,0.00
2017,05,12,06,53,0.00
2017,05,12,06,54,0.00
2017,05,12,06,55,0.00
2017,05,12,06,56,0.30
2017,05,12,06,57,0.00
2017,05,12,06,58,0.00
2017,05,12,06,59,0.00
2017,05,12,07,00,0.00
2017,05,12,07,01,0.00
2017,05,12,07,02,0.00
2017,05,12,07,03,0.00
2017,05,12,07,04,0.00
2017,05,12,07,05,0.00
2017,05,12,07,06,0.00
2017,05,12,07,07,0.00
2017,05,12,07,08,0.00
2017,05,12,07,09,0.00
2017,05,12,07,10,0.00
2017,05,12,07,11,0.00
2017,05,12,07,12,0.20
2017,05,12,07,13,3.50
2017,05,12,07,14,2.80
2017,05,12,07,15,2.00
2017,05,12,07,16,0.40
2017,05,12,07,17,0.10
2017,05,12,07,18,2.10
2017,05,12,07,19,1.00
2017,05,12,07,20,2.80
2017,05,12,07,21,2.40
2017,05,12,07,22,2.10
2017,05,12,07,23,1.50
2017,05,12,07,24,3.90
2017,05,12,07,25,2.40
2017,05,12,07,26,1.00
2017,05,12,07,27,2.70
2017,05,12,07,28,2.10
2017,05,12,07,29,4.80
2017,05,12,07,30,2.70
2017,05,12,07,31,3.00
2017,05,12,07,32,0.80
2017,05,12,07,33,3.30
2017,05,12,07,34,2.80
2017,05,12,07,35,1.70
2017,05,12,07,36,3.90
2017,05,12,07,37,2.90
2017,05,12,07,38,4.00
2017,05,12,07,39,3.40
2017,05,12,07,40,0.50
2017,05,12,07,41,3.00
2017,05,12,07,42,3.30
2017,05,12,07,43,5.80
2017,05,12,07,44,3.80
2017,05,12,07,45,3.40
2017,05,12,07,46,1.80
2017,05,12,07,47,0.80
2017,05,12,07,48,0.40
2017,05,12,07,49,2.00
2017,05,12,07,50,5.10
2017,05,12,07,51,2.10
2017,05,12,07,52,0.10
2017,05,12,07,53,0.80
2017,05,12,07,54,4.80
2017,05,12,07,55,3.10
2017,05,12,07,56,6.40
2017,05,12,07,57,3.50
2017,05,12,07,58,1.70
2017,05,12,07,59,2.60
2017,05,12,08,00,4.90
2017,05,12,08,01,2.90
2017,05,12,08,02,3.00
2017,05,12,08,03,3.70
2017,05,12,08,04,1.30
2017,05,12,08,05,1.80
2017,05,12,08,06,2.90
2017,05,12,08,07,0.70
2017,05,12,08,08,0.00
2017,05,12,08,09,0.10
2017,05,12,08,10,3.40
2017,05,12,08,11,2.70
2017,05,12,08,12,3.00
2017,05,12,08,13,1.00
2017,05,12,08,14,3.00
2017,05,12,08,15,1.80
2017,05,12,08,16,0.50
2017,05,12,08,17,3.00
2017,05,12,08,18,2.20
2017,05,12,08,19,1.40
2017,05,12,08,20,1.70
2017,05,12,08,21,4.60
2017,05,12,08,22,4.40
2017,05,12,08,23,3.90
2017,05,12,08,24,4.60
2017,05,12,08,25,6.40
2017,05,12,08,26,5.50
2017,05,12,08,27,3.30
2017,05,12,08,28,3.80
2017,05,12,08,29,0.40
2017,05,12,08,30,0.00
2017,05,12,08,31,3.00
2017,05,12,08,32,4.40
2017,05,12,08,33,2.70
2017,05,12,08,34,3.80
2017,05,12,08,35,6.00
2017,05,12,08,36,5.10
2017,05,12,08,37,4.20
2017,05,12,08,38,2.10
2017,05,12,08,39,2.90
2017,05,12,08,40,4.10
2017,05,12,08,41,6.10
2017,05,12,08,42,5.80
2017,05,12,08,43,4.70
2017,05,12,08,44,5.20
2017,05,12,08,45,2.90
2017,05,12,08,46,4.40
2017,05,12,08,47,2.40
2017,05,12,08,48,1.70
2017,05,12,08,49,0.60
2017,05,12,08,50,1.50
2017,05,12,08,51,4.00
2017,05,12,08,52,2.10
2017,05,12,08,53,3.60
2017,05,12,08,54,3.70
2017,05,12,08,55,4.50
2017,05,12,08,56,4.30
2017,05,12,08,57,2.90
2017,05,12,08,58,1.20
2017,05,12,08,59,2.50
2017,05,12,09,00,3.00
2017,05,12,09,01,2.10
2017,05,12,09,02,2.60
2017,05,12,09,03,4.50
2017,05,12,09,04,4.20
2017,05,12,09,05,2.50
2017,05,12,09,06,4.10
2017,05,12,09,07,4.40
2017,05,12,09,08,5.60
2017,05,12,09,09,5.10
2017,05,12,09,10,2.50
2017,05,12,09,11,0.10
2017,05,12,09,12,0.00
2017,05,12,09,13,0.90
2017,05,12,09,14,3.10
2017,05,12,09,15,0.20
2017,05,12,09,16,0.70
2017,05,12,09,17,2.60
2017,05,12,09,18,2.30
2017,05,12,09,19,1.00
2017,05,12,09,20,2.70
2017,05,12,09,21,2.90
2017,05,12,09,22,2.80
2017,05,12,09,23,3.50
2017,05,12,09,24,3.30
2017,05,12,09,25,2.40
2017,05,12,09,26,2.40
2017,05,12,09,27,3.00
2017,05,12,09,28,3.70
2017,05,12,09,29,6.50
2017,05,12,09,30,3.90
2017,05,12,09,31,2.90
2017,05,12,09,32,1.60
2017,05,12,09,33,1.00
2017,05,12,09,34,1.40
2017,05,12,09,35,4.20
2017,05,12,09,36,3.60
2017,05,12,09,37,2.20
2017,05,12,09,38,0.70
2017,05,12,09,39,0.00
2017,05,12,09,40,2.00
2017,05,12,09,41,3.70
2017,05,12,09,42,2.10
2017,05,12,09,43,6.40
2017,05,12,09,44,5.20
2017,05,12,09,45,2.60
2017,05,12,09,46,12.20
2017,05,12,09,47,7.90
2017,05,12,09,48,6.50
2017,05,12,09,49,12.20
2017,05,12,09,50,7.40
2017,05,12,09,51,6.70
2017,05,12,09,52,9.80
2017,05,12,09,53,10.20
2017,05,12,09,54,12.80
2017,05,12,09,55,7.70
2017,05,12,09,56,14.80
2017,05,12,09,57,8.00
2017,05,12,09,58,6.00
2017,05,12,09,59,6.50
2017,05,12,10,00,4.00
2017,05,12,10,01,6.90
2017,05,12,10,02,14.80
2017,05,12,10,03,8.40
2017,05,12,10,04,12.40
2017,05,12,10,05,15.70
2017,05,12,10,06,8.40
2017,05,12,10,07,12.30
2017,05,12,10,08,11.70
2017,05,12,10,09,8.80
2017,05,12,10,10,11.40
2017,05,12,10,11,9.10
2017,05,12,10,12,11.30
2017,05,12,10,13,10.60
2017,05,12,10,14,13.20
2017,05,12,10,15,7.70
2017,05,12,10,16,9.70
2017,05,12,10,17,10.60
2017,05,12,10,18,15.90
2017,05,12,10,19,8.90
2017,05,12,10,20,11.00
2017,05,12,10,21,5.50
2017,05,12,10,22,10.30
2017,05,12,10,23,13.30
2017,05,12,10,24,13.60
2017,05,12,10,25,13.90
2017,05,12,10,26,6.00
2017,05,12,10,27,13.60
2017,05,12,10,28,13.90
2017,05,12,10,29,16.80
2017,05,12,10,30,13.60
2017,05,12,10,31,12.50
2017,05,12,10,32,11.40
2017,05,12,10,33,12.10
2017,05,12,10,34,11.90
2017,05,12,10,35,16.50
2017,05,12,10,36,11.40
2017,05,12,10,37,12.50
2017,05,12,10,38,14.50
2017,05,12,10,39,9.20
2017,05,12,10,40,8.10
2017,05,12,10,41,10.70
2017,05,12,10,42,16.30
2017,05,12,10,43,9.20
2017,05,12,10,44,11.40
2017,05,12,10,45,14.10
2017,05,12,10,46,8.80
2017,05,12,10,47,17.10
2017,05,12,10,48,15.90
2017,05,12,10,49,18.50
2017,05,12,10,50,16.90
2017,05,12,10,51,17.90
2017,05,12,10,52,11.00
2017,05,12,10,53,9.70
2017,05,12,10,54,11.70
2017,05,12,10,55,10.20
2017,05,12,10,56,8.00
2017,05,12,10,57,16.10
2017,05,12,10,58,12.50
2017,05,12,10,59,11.30
2017,05,12,11,00,14.10
2017,05,12,11,01,7.00
2017,05,12,11,02,11.70
2017,05,12,11,03,12.90
2017,05,12,11,04,8.50
2017,05,12,11,05,15.10
2017,05,12,11,06,12.40
2017,05,12,11,07,11.90
2017,05,12,11,08,12.00
2017,05,12,11,09,12.80
2017,05,12,11,10,9.70
2017,05,12,11,11,15.40
2017,05,12,11,12,9.90
2017,05,12,11,13,12.20
2017,05,12,11,14,13.70
2017,05,12,11,15,14.40
2017,05,12,11,16,15.00
2017,05,12,11,17,13.50
2017,05,12,11,18,11.90
2017,05,12,11,19,13.60
2017,05,12,11,20,15.90
2017,05,12,11,21,11.90
2017,05,12,11,22,13.10
2017,05,12,11,23,8.50
2017,05,12,11,24,16.20
2017,05,12,11,25,12.90
2017,05,12,11,26,12.40
2017,05,12,11,27,14.20
2017,05,12,11,28,8.70
2017,05,12,11,29,8.90
2017,05,12,11,30,13.10
2017,05,12,11,31,6.40
2017,05,12,11,32,8.60
2017,05,12,11,33,11.40
2017,05,12,11,34,10.30
2017,05,12,11,35,13.50
2017,05,12,11,36,16.10
2017,05,12,11,37,13.90
2017,05,12,11,38,7.70
2017,05,12,11,39,10.40
2017,05,12,11,40,12.60
2017,05,12,11,41,12.20
2017,05,12,11,42,8.60
2017,05,12,11,43,10.10
2017,05,12,11,44,10.80
2017,05,12,11,45,8.70
2017,05,12,11,46,14.90
2017,05,12,11,47,15.50
2017,05,12,11,48,17.00
2017,05,12,11,49,14.50
2017,05,12,11,50,15.40
2017,05,12,11,51,15.00
2017,05,12,11,52,14.00
2017,05,12,11,53,15.00
2017,05,12,11,54,13.80
2017,05,12,11,55,13.60
2017,05,12,11,56,16.00
2017,05,12,11,57,13.60
2017,05,12,11,58,11.10
2017,05,12,11,59,10.30
2017,05,12,12,00,10.10
2017,05,12,12,01,6.90
2017,05,12,12,02,12.00
2017,05,12,12,03,13.80
2017,05,12,12,04,9.00
2017,05,12,12,05,8.20
2017,05,12,12,06,12.80
2017,05,12,12,07,11.10
2017,05,12,12,08,12.90
2017,05,12,12,09,14.00
2017,05,12,12,10,10.30
2017,05,12,12,11,10.40
2017,05,12,12,12,14.10
2017,05,12,12,13,15.70
2017,05,12,12,14,10.30
2017,05,12,12,15,7.60
2017,05,12,12,16,12.70
2017,05,12,12,17,12.90
2017,05,12,12,18,7.80
2017,05,12,12,19,11.60
2017,05,12,12,20,14.70
2017,05,12,12,21,13.90
2017,05,12,12,22,10.60
2017,05,12,12,23,9.10
2017,05,12,12,24,8.20
2017,05,12,12,25,11.50
2017,05,12,12,26,8.20
2017,05,12,12,27,13.90
2017,05,12,12,28,10.90
2017,05,12,12,29,11.60
2017,05,12,12,30,6.70
2017,05,12,12,31,8.80
2017,05,12,12,32,6.60
2017,05,12,12,33,6.60
2017,05,12,12,34,7.20
2017,05,12,12,35,6.70
2017,05,12,12,36,14.00
2017,05,12,12,37,13.70
2017,05,12,12,38,8.60
2017,05,12,12,39,11.40
2017,05,12,12,40,11.30
2017,05,12,12,41,7.50
2017,05,12,12,42,10.40
2017,05,12,12,43,6.50
2017,05,12,12,44,5.70
2017,05,12,12,45,6.20
2017,05,12,12,46,7.70
2017,05,12,12,47,8.80
2017,05,12,12,48,6.40
2017,05,12,12,49,4.90
2017,05,12,12,50,8.90
2017,05,12,12,51,10.00
2017,05,12,12,52,8.40
2017,05,12,12,53,14.30
2017,05,12,12,54,11.30
2017,05,12,12,55,12.90
2017,05,12,12,56,10.50
2017,05,12,12,57,12.50
2017,05,12,12,58,10.20
2017,05,12,12,59,13.90
2017,05,12,13,00,10.50
2017,05,12,13,01,14.80
2017,05,12,13,02,14.10
2017,05,12,13,03,13.40
2017,05,12,13,04,14.30
2017,05,12,13,05,12.50
2017,05,12,13,06,10.30
2017,05,12,13,07,12.90
2017,05,12,13,08,10.50
2017,05,12,13,09,12.00
2017,05,12,13,10,6.80
2017,05,12,13,11,8.50
2017,05,12,13,12,7.20
2017,05,12,13,13,6.90
2017,05,12,13,14,7.40
2017,05,12,13,15,12.60
2017,05,12,13,16,13.20
2017,05,12,13,17,10.90
2017,05,12,13,18,12.20
2017,05,12,13,19,9.00
2017,05,12,13,20,7.60
2017,05,12,13,21,10.30
2017,05,12,13,22,11.60
2017,05,12,13,23,8.40
2017,05,12,13,24,13.40
2017,05,12,13,25,12.80
2017,05,12,13,26,10.70
2017,05,12,13,27,8.50
2017,05,12,13,28,7.80
2017,05,12,13,29,8.30
2017,05,12,13,30,12.60
2017,05,12,13,31,12.40
2017,05,12,13,32,16.20
2017,05,12,13,33,14.60
2017,05,12,13,34,17.30
2017,05,12,13,35,11.00
2017,05,12,13,36,4.50
2017,05,12,13,37,9.10
2017,05,12,13,38,6.20
2017,05,12,13,39,13.50
2017,05,12,13,40,10.80
2017,05,12,13,41,6.20
2017,05,12,13,42,9.30
2017,05,12,13,43,5.30
2017,05,12,13,44,3.90
2017,05,12,13,45,3.10
2017,05,12,13,46,10.20
2017,05,12,13,47,10.60
2017,05,12,13,48,12.00
2017,05,12,13,49,12.00
2017,05,12,13,50,16.30
2017,05,12,13,51,13.50
2017,05,12,13,52,12.70
2017,05,12,13,53,10.30
2017,05,12,13,54,10.10
2017,05,12,13,55,10.70
2017,05,12,13,56,9.00
2017,05,12,13,57,10.80
2017,05,12,13,58,12.20
2017,05,12,13,59,7.10
2017,05,12,14,00,8.50
2017,05,12,14,01,10.80
2017,05,12,14,02,9.70
2017,05,12,14,03,9.50
2017,05,12,14,04,12.10
2017,05,12,14,05,7.80
2017,05,12,14,06,10.60
2017,05,12,14,07,9.00
2017,05,12,14,08,6.30
2017,05,12,14,09,6.00
2017,05,12,14,10,8.20
2017,05,12,14,11,9.70
2017,05,12,14,12,7.00
2017,05,12,14,13,4.00
2017,05,12,14,14,6.00
2017,05,12,14,15,7.10
2017,05,12,14,16,11.90
2017,05,12,14,17,8.80
2017,05,12,14,18,7.90
2017,05,12,14,19,5.10
2017,05,12,14,20,6.80
2017,05,12,14,21,7.50
2017,05,12,14,22,6.90
2017,05,12,14,23,11.30
2017,05,12,14,24,8.10
2017,05,12,14,25,11.70
2017,05,12,14,26,11.70
2017,05,12,14,27,9.20
2017,05,12,14,28,9.10
2017,05,12,14,29,6.40
2017,05,12,14,30,7.30
2017,05,12,14,31,5.80
2017,05,12,14,32,2.90
2017,05,12,14,33,8.50
2017,05,12,14,34,7.30
2017,05,12,14,35,11.30
2017,05,12,14,36,12.30
2017,05,12,14,37,6.00
2017,05,12,14,38,7.50
2017,05,12,14,39,8.50
2017,05,12,14,40,8.30
2017,05,12,14,41,5.00
2017,05,12,14,42,6.10
2017,05,12,14,43,7.00
2017,05,12,14,44,9.60
2017,05,12,14,45,6.30
2017,05,12,14,46,10.00
2017,05,12,14,47,6.60
2017,05,12,14,48,9.20
2017,05,12,14,49,10.70
2017,05,12,14,50,7.60
2017,05,12,14,51,9.90
2017,05,12,14,52,6.50
2017,05,12,14,53,6.10
2017,05,12,14,54,5.40
2017,05,12,14,55,5.40
2017,05,12,14,56,7.20
2017,05,12,14,57,6.00
2017,05,12,14,58,3.60
2017,05,12,14,59,5.50
2017,05,12,15,00,7.20
2017,05,12,15,01,3.80
2017,05,12,15,02,9.80
2017,05,12,15,03,7.00
2017,05,12,15,04,7.90
2017,05,12,15,05,6.50
2017,05,12,15,06,5.80
2017,05,12,15,07,5.90
2017,05,12,15,08,9.40
2017,05,12,15,09,7.60
2017,05,12,15,10,5.80
2017,05,12,15,11,10.10
2017,05,12,15,12,11.30
2017,05,12,15,13,11.90
2017,05,12,15,14,8.50
2017,05,12,15,15,6.90
2017,05,12,15,16,10.20
2017,05,12,15,17,4.20
2017,05,12,15,18,5.10
2017,05,12,15,19,3.30
2017,05,12,15,20,5.30
2017,05,12,15,21,5.40
2017,05,12,15,22,8.00
2017,05,12,15,23,5.40
2017,05,12,15,24,5.00
2017,05,12,15,25,8.90
2017,05,12,15,26,11.60
2017,05,12,15,27,10.30
2017,05,12,15,28,7.90
2017,05,12,15,29,8.90
2017,05,12,15,30,9.50
2017,05,12,15,31,13.80
2017,05,12,15,32,10.80
2017,05,12,15,33,14.30
2017,05,12,15,34,9.70
2017,05,12,15,35,10.40
2017,05,12,15,36,11.40
2017,05,12,15,37,6.70
2017,05,12,15,38,4.30
2017,05,12,15,39,4.40
2017,05,12,15,40,6.60
2017,05,12,15,41,4.80
2017,05,12,15,42,7.70
2017,05,12,15,43,8.00
2017,05,12,15,44,5.70
2017,05,12,15,45,5.40
2017,05,12,15,46,5.30
2017,05,12,15,47,6.10
2017,05,12,15,48,6.00
2017,05,12,15,49,6.20
2017,05,12,15,50,8.80
2017,05,12,15,51,8.60
2017,05,12,15,52,5.20
2017,05,12,15,53,6.80
2017,05,12,15,54,9.40
2017,05,12,15,55,10.60
2017,05,12,15,56,10.00
2017,05,12,15,57,12.60
2017,05,12,15,58,11.90
2017,05,12,15,59,10.70
2017,05,12,16,00,11.00
2017,05,12,16,01,9.10
2017,05,12,16,02,7.00
2017,05,12,16,03,9.70
2017,05,12,16,04,9.40
2017,05,12,16,05,12.00
2017,05,12,16,06,8.60
2017,05,12,16,07,12.00
2017,05,12,16,08,13.80
2017,05,12,16,09,12.10
2017,05,12,16,10,15.20
2017,05,12,16,11,10.70
2017,05,12,16,12,11.50
2017,05,12,16,13,10.20
2017,05,12,16,14,11.50
2017,05,12,16,15,10.40
2017,05,12,16,16,10.70
2017,05,12,16,17,13.60
2017,05,12,16,18,12.40
2017,05,12,16,19,5.40
2017,05,12,16,20,6.40
2017,05,12,16,21,7.10
2017,05,12,16,22,12.10
2017,05,12,16,23,13.10
2017,05,12,16,24,10.80
2017,05,12,16,25,9.40
2017,05,12,16,26,13.60
2017,05,12,16,27,9.90
2017,05,12,16,28,11.40
2017,05,12,16,29,11.50
2017,05,12,16,30,7.80
2017,05,12,16,31,9.90
2017,05,12,16,32,8.40
2017,05,12,16,33,7.00
2017,05,12,16,34,7.60
2017,05,12,16,35,13.20
2017,05,12,16,36,15.30
2017,05,12,16,37,8.90
2017,05,12,16,38,6.10
2017,05,12,16,39,8.60
2017,05,12,16,40,7.00
2017,05,12,16,41,5.80
2017,05,12,16,42,10.60
2017,05,12,16,43,12.10
2017,05,12,16,44,11.70
2017,05,12,16,45,9.20
2017,05,12,16,46,9.50
2017,05,12,16,47,10.50
2017,05,12,16,48,11.10
2017,05,12,16,49,11.00
2017,05,12,16,50,12.90
2017,05,12,16,51,11.60
2017,05,12,16,52,9.70
2017,05,12,16,53,13.40
2017,05,12,16,54,13.10
2017,05,12,16,55,12.10
2017,05,12,16,56,8.10
2017,05,12,16,57,6.30
2017,05,12,16,58,10.50
2017,05,12,16,59,8.00
2017,05,12,17,00,9.40
2017,05,12,17,01,7.00
2017,05,12,17,02,7.10
2017,05,12,17,03,7.90
2017,05,12,17,04,8.20
2017,05,12,17,05,7.60
2017,05,12,17,06,5.50
2017,05,12,17,07,7.50
2017,05,12,17,08,6.30
2017,05,12,17,09,5.20
2017,05,12,17,10,9.10
2017,05,12,17,11,7.20
2017,05,12,17,12,7.60
2017,05,12,17,13,6.60
2017,05,12,17,14,7.90
2017,05,12,17,15,8.80
2017,05,12,17,16,9.00
2017,05,12,17,17,6.10
2017,05,12,17,18,4.80
2017,05,12,17,19,7.90
2017,05,12,17,20,9.70
2017,05,12,17,21,5.60
2017,05,12,17,22,12.00
2017,05,12,17,23,10.00
2017,05,12,17,24,8.80
2017,05,12,17,25,8.30
2017,05,12,17,26,9.80
2017,05,12,17,27,8.30
2017,05,12,17,28,5.60
2017,05,12,17,29,3.70
2017,05,12,17,30,3.50
2017,05,12,17,31,4.50
2017,05,12,17,32,1.60
2017,05,12,17,33,5.20
2017,05,12,17,34,3.30
2017,05,12,17,35,2.60
2017,05,12,17,36,4.20
2017,05,12,17,37,2.50
2017,05,12,17,38,4.90
2017,05,12,17,39,4.50
2017,05,12,17,40,8.30
2017,05,12,17,41,7.60
2017,05,12,17,42,6.00
2017,05,12,17,43,5.10
2017,05,12,17,44,4.50
2017,05,12,17,45,8.20
2017,05,12,17,46,5.50
2017,05,12,17,47,5.30
2017,05,12,17,48,7.20
2017,05,12,17,49,6.40
2017,05,12,17,50,10.90
2017,05,12,17,51,4.60
2017,05,12,17,52,5.80
2017,05,12,17,53,8.20
2017,05,12,17,54,4.40
2017,05,12,17,55,5.40